| time (UTC) | temp F | wind direction | speed MPH | gust MPH | rain 1hr in | rain 24hr in | rain mn in | humidity % | barometer mb |
| 20260505072438 | 42 | 32 | 2.0 | 4.0 | 0.00 | 0.00 | 0.00 | 82 | 1024.0 |
| 20260505071439 | 42 | 41 | 2.0 | 3.0 | 0.00 | 0.00 | 0.00 | 82 | 1024.3 |
| 20260505070515 | 42 | 34 | 2.0 | 3.0 | 0.00 | 0.00 | 0.00 | 82 | 1024.2 |
| 20260505065438 | 43 | 38 | 2.0 | 3.0 | 0.00 | 0.00 | 0.00 | 82 | 1024.3 |
| 20260505063437 | 43 | 34 | 2.0 | 3.0 | 0.00 | 0.00 | 0.00 | 81 | 1024.0 |
| 20260505062438 | 43 | 43 | 2.0 | 4.0 | 0.00 | 0.00 | 0.00 | 81 | 1024.3 |
| 20260505061438 | 44 | 45 | 2.0 | 4.0 | 0.00 | 0.00 | 0.00 | 81 | 1024.3 |
| 20260505060438 | 44 | 36 | 2.0 | 3.0 | 0.00 | 0.00 | 0.00 | 81 | 1024.3 |
| 20260505055437 | 44 | 39 | 2.0 | 2.0 | 0.00 | 0.00 | 0.00 | 81 | 1024.2 |
| 20260505053449 | 45 | 22 | 1.0 | 2.0 | 0.00 | 0.00 | 0.00 | 81 | 1024.3 |
| 20260505052437 | 45 | 41 | 1.0 | 2.0 | 0.00 | 0.00 | 0.00 | 81 | 1024.3 |
| 20260505051438 | 46 | 47 | 2.0 | 2.0 | 0.00 | 0.00 | 0.00 | 80 | 1024.4 |
| 20260505050437 | 47 | 45 | 2.0 | 2.0 | 0.00 | 0.00 | 0.00 | 80 | 1024.7 |
| 20260505041437 | 49 | 47 | 1.0 | 2.0 | 0.00 | 0.00 | 0.00 | 80 | 1024.9 |
| 20260505033437 | 51 | 45 | 1.0 | 3.0 | 0.00 | 0.00 | 0.00 | 80 | 1025.3 |
| 20260505032447 | 52 | 45 | 1.0 | 2.0 | 0.00 | 0.00 | 0.00 | 80 | 1025.3 |
| 20260505031436 | 52 | 45 | 1.0 | 2.0 | 0.00 | 0.00 | 0.00 | 80 | 1025.3 |
| 20260505030437 | 53 | 34 | 1.0 | 4.0 | 0.00 | 0.00 | 0.00 | 81 | 1025.5 |
| 20260505025436 | 53 | 289 | 1.0 | 2.0 | 0.00 | 0.00 | 0.00 | 81 | 1025.3 |
| 20260505024437 | 53 | 270 | 0.0 | 0.0 | 0.00 | 0.00 | 0.00 | 81 | 1025.5 |
| 20260505023437 | 53 | 257 | 1.0 | 2.0 | 0.00 | 0.00 | 0.00 | 81 | 1025.5 |
| 20260505022436 | 52 | 248 | 0.0 | 0.0 | 0.00 | 0.00 | 0.00 | 81 | 1025.6 |
| 20260505021437 | 52 | 248 | 0.0 | 1.0 | 0.00 | 0.00 | 0.00 | 81 | 1025.7 |
| 20260505020438 | 52 | 248 | 0.0 | 1.0 | 0.00 | 0.00 | 0.00 | 82 | 1025.8 |
| 20260505015437 | 52 | 218 | 2.0 | 4.0 | 0.00 | 0.00 | 0.00 | 82 | 1026.0 |
| 20260505014436 | 51 | 219 | 1.0 | 2.0 | 0.00 | 0.00 | 0.00 | 82 | 1026.3 |
| 20260505013447 | 51 | 248 | 1.0 | 3.0 | 0.00 | 0.00 | 0.00 | 82 | 1026.5 |
| 20260505012437 | 51 | 219 | 1.0 | 3.0 | 0.00 | 0.00 | 0.00 | 82 | 1026.5 |
| 20260505011436 | 51 | 216 | 2.0 | 3.0 | 0.00 | 0.00 | 0.00 | 82 | 1026.7 |
| 20260505010437 | 51 | 227 | 2.0 | 3.0 | 0.00 | 0.00 | 0.00 | 82 | 1027.0 |
| 20260505005439 | 51 | 225 | 0.0 | 2.0 | 0.00 | 0.00 | 0.00 | 82 | 1027.0 |
| 20260505003436 | 51 | 197 | 2.0 | 3.0 | 0.00 | 0.00 | 0.00 | 82 | 1027.5 |
| 20260505001436 | 51 | 244 | 1.0 | 3.0 | 0.00 | 0.00 | 0.00 | 83 | 1027.9 |
| 20260505000447 | 50 | 236 | 2.0 | 6.0 | 0.00 | 0.00 | 0.00 | 83 | 1028.0 |
| 20260504235437 | 50 | 182 | 2.0 | 3.0 | 0.00 | 0.00 | 0.00 | 83 | 1028.2 |
| 20260504234437 | 50 | 195 | 2.0 | 3.0 | 0.00 | 0.00 | 0.00 | 83 | 1028.4 |
| 20260504232437 | 50 | 189 | 2.0 | 3.0 | 0.00 | 0.00 | 0.00 | 84 | 1028.4 |
| 20260504231436 | 50 | 216 | 2.0 | 4.0 | 0.00 | 0.00 | 0.00 | 84 | 1028.5 |
| 20260504230437 | 50 | 238 | 2.0 | 4.0 | 0.00 | 0.00 | 0.00 | 84 | 1028.4 |
| 20260504225437 | 50 | 202 | 2.0 | 4.0 | 0.00 | 0.00 | 0.00 | 85 | 1028.4 |
| 20260504224437 | 50 | 232 | 2.0 | 3.0 | 0.00 | 0.00 | 0.00 | 85 | 1028.3 |
| 20260504223436 | 50 | 223 | 0.0 | 2.0 | 0.00 | 0.00 | 0.00 | 85 | 1028.6 |
| 20260504222437 | 50 | 195 | 1.0 | 3.0 | 0.00 | 0.00 | 0.00 | 85 | 1028.5 |
| 20260504221438 | 49 | 180 | 0.0 | 1.0 | 0.00 | 0.00 | 0.00 | 85 | 1028.6 |
| 20260504220437 | 49 | 193 | 0.0 | 2.0 | 0.00 | 0.00 | 0.00 | 85 | 1028.6 |
| 20260504215436 | 49 | 212 | 1.0 | 3.0 | 0.00 | 0.00 | 0.00 | 85 | 1028.6 |
| 20260504213436 | 49 | 212 | 1.0 | 2.0 | 0.00 | 0.00 | 0.00 | 85 | 1028.8 |
| 20260504212437 | 49 | 210 | 0.0 | 2.0 | 0.00 | 0.00 | 0.00 | 85 | 1028.9 |
| 20260504211438 | 48 | 188 | 0.0 | 2.0 | 0.00 | 0.00 | 0.00 | 85 | 1029.0 |
| 20260504210438 | 48 | 22 | 0.0 | 1.0 | 0.00 | 0.00 | 0.00 | 85 | 1028.9 |
| 20260504205436 | 48 | 82 | 0.0 | 0.0 | 0.00 | 0.00 | 0.00 | 85 | 1028.8 |
| 20260504204436 | 48 | 135 | 0.0 | 0.0 | 0.00 | 0.00 | 0.00 | 85 | 1028.8 |
| 20260504201439 | 47 | 45 | 0.0 | 0.0 | 0.00 | 0.00 | 0.00 | 85 | 1028.8 |
| 20260504200438 | 47 | 45 | 1.0 | 2.0 | 0.00 | 0.00 | 0.00 | 85 | 1028.8 |
| 20260504194437 | 47 | 43 | 2.0 | 3.0 | 0.00 | 0.00 | 0.00 | 85 | 1028.7 |
| 20260504193446 | 47 | 45 | 0.0 | 1.0 | 0.00 | 0.00 | 0.00 | 85 | 1028.6 |
| 20260504192437 | 47 | 45 | 0.0 | 0.0 | 0.00 | 0.00 | 0.00 | 85 | 1028.7 |
| 20260504191435 | 47 | 45 | 0.0 | 1.0 | 0.00 | 0.00 | 0.00 | 85 | 1028.6 |
| 20260504190437 | 47 | 45 | 0.0 | 1.0 | 0.00 | 0.00 | 0.00 | 85 | 1028.6 |
| 20260504185438 | 47 | 30 | 0.0 | 2.0 | 0.00 | 0.00 | 0.00 | 85 | 1028.6 |
| 20260504184437 | 47 | 109 | 0.0 | 2.0 | 0.00 | 0.00 | 0.00 | 85 | 1028.6 |
| 20260504182437 | 47 | 292 | 0.0 | 0.0 | 0.00 | 0.00 | 0.00 | 85 | 1028.6 |
| 20260504181447 | 47 | 292 | 0.0 | 0.0 | 0.00 | 0.00 | 0.00 | 85 | 1028.7 |
| 20260504180448 | 48 | 292 | 0.0 | 0.0 | 0.00 | 0.00 | 0.00 | 85 | 1028.7 |
| 20260504175437 | 48 | 292 | 0.0 | 0.0 | 0.00 | 0.00 | 0.00 | 85 | 1028.7 |
| 20260504174436 | 48 | 292 | 0.0 | 1.0 | 0.00 | 0.00 | 0.00 | 85 | 1028.6 |
| 20260504173437 | 48 | 248 | 0.0 | 0.0 | 0.00 | 0.00 | 0.00 | 85 | 1028.7 |
| 20260504172436 | 48 | 248 | 0.0 | 0.0 | 0.00 | 0.00 | 0.00 | 85 | 1028.7 |
| 20260504171447 | 48 | 15 | 0.0 | 1.0 | 0.00 | 0.00 | 0.00 | 85 | 1028.6 |
| 20260504170436 | 48 | 68 | 0.0 | 0.0 | 0.00 | 0.00 | 0.00 | 85 | 1028.6 |
| 20260504160436 | 48 | 45 | 0.0 | 0.0 | 0.00 | 0.00 | 0.00 | 84 | 1028.7 |
| 20260504150441 | 48 | 45 | 1.0 | 3.0 | 0.00 | 0.00 | 0.00 | 84 | 1028.9 |
| 20260504130437 | 48 | 45 | 1.0 | 2.0 | 0.00 | 0.00 | 0.00 | 84 | 1029.4 |
| 20260504110437 | 49 | 45 | 1.0 | 2.0 | 0.00 | 0.00 | 0.00 | 84 | 1030.0 |
| 20260504100437 | 50 | 45 | 0.0 | 0.0 | 0.00 | 0.00 | 0.00 | 84 | 1030.1 |